Time,TemperatureF,DewpointF,PressureIn,WindDirection,WindDirectionDegrees,WindSpeedMPH,WindSpeedGustMPH,Humidity,HourlyPrecipIn,Conditions,Clouds,dailyrainin,SoftwareType,DateUTC
2013-03-28 00:00:00,38.1,32.5,29.87,North,0,3.4,3.8,80,0.00,,,0.00,WUHU216HW,2013-03-28 04:00:00,
2013-03-28 00:01:00,38.1,32.5,29.87,NW,315,2.5,3.4,80,0.00,,,0.00,WUHU216HW,2013-03-28 04:01:00,
2013-03-28 00:06:00,37.9,32.6,29.87,NE,45,4.7,5.8,81,0.01,,,0.01,WUHU216HW,2013-03-28 04:06:00,
2013-03-28 00:11:00,37.7,32.7,29.87,WNW,293,1.8,5.8,82,0.01,,,0.01,WUHU216HW,2013-03-28 04:11:00,
2013-03-28 00:16:00,37.6,32.6,29.87,NNW,338,5.1,5.4,82,0.01,,,0.01,WUHU216HW,2013-03-28 04:16:00,
2013-03-28 00:21:00,37.6,32.9,29.87,NW,315,4.5,5.4,83,0.01,,,0.01,WUHU216HW,2013-03-28 04:21:00,
2013-03-28 00:26:00,37.6,32.9,29.87,West,270,2.7,5.1,83,0.01,,,0.01,WUHU216HW,2013-03-28 04:26:00,
2013-03-28 00:31:00,37.4,32.7,29.87,NNW,338,3.6,5.8,83,0.01,,,0.01,WUHU216HW,2013-03-28 04:31:00,
2013-03-28 00:36:00,37.4,33.0,29.87,West,270,4.5,5.8,84,0.01,,,0.01,WUHU216HW,2013-03-28 04:36:00,
2013-03-28 00:41:00,37.2,32.8,29.87,NW,315,4.3,6.5,84,0.01,,,0.01,WUHU216HW,2013-03-28 04:41:00,
2013-03-28 00:46:00,37.2,32.8,29.87,NNW,338,3.4,6.5,84,0.01,,,0.01,WUHU216HW,2013-03-28 04:46:00,
2013-03-28 00:51:00,37.0,32.6,29.87,ENE,68,2.7,5.4,84,0.01,,,0.01,WUHU216HW,2013-03-28 04:51:00,
2013-03-28 00:57:00,37.0,32.6,29.87,NW,315,2.2,4.7,84,0.01,,,0.01,WUHU216HW,2013-03-28 04:57:00,
2013-03-28 01:02:00,36.8,32.4,29.87,East,90,2.5,6.0,84,0.00,,,0.01,WUHU216HW,2013-03-28 05:02:00,
2013-03-28 01:07:00,36.8,32.7,29.87,SW,225,3.1,6.0,85,0.00,,,0.01,WUHU216HW,2013-03-28 05:07:00,
2013-03-28 01:12:00,36.8,32.7,29.87,NNE,23,3.4,5.1,85,0.00,,,0.01,WUHU216HW,2013-03-28 05:12:00,
2013-03-28 01:17:00,36.8,32.7,29.87,NW,315,4.3,5.1,85,0.00,,,0.01,WUHU216HW,2013-03-28 05:17:00,
2013-03-28 01:22:00,36.8,33.0,29.87,NW,315,3.1,4.3,86,0.00,,,0.01,WUHU216HW,2013-03-28 05:22:00,
2013-03-28 01:27:00,36.8,33.0,29.87,NW,315,1.8,4.7,86,0.01,,,0.02,WUHU216HW,2013-03-28 05:27:00,
2013-03-28 01:32:00,36.7,32.9,29.87,WNW,293,4.5,5.4,86,0.01,,,0.02,WUHU216HW,2013-03-28 05:32:00,
2013-03-28 01:37:00,36.8,33.0,29.87,North,0,2.2,5.6,86,0.01,,,0.02,WUHU216HW,2013-03-28 05:37:00,
2013-03-28 01:42:00,36.7,33.2,29.87,NW,315,3.8,5.6,87,0.01,,,0.02,WUHU216HW,2013-03-28 05:42:00,
2013-03-28 01:47:00,36.7,33.2,29.87,NNW,338,2.5,6.9,87,0.01,,,0.02,WUHU216HW,2013-03-28 05:47:00,
2013-03-28 01:52:00,36.7,33.2,29.87,WNW,293,2.2,7.6,87,0.01,,,0.02,WUHU216HW,2013-03-28 05:52:00,
2013-03-28 01:57:00,36.5,33.0,29.87,South,180,2.9,7.6,87,0.01,,,0.02,WUHU216HW,2013-03-28 05:57:00,
2013-03-28 02:02:00,36.5,33.0,29.87,NNE,23,1.6,4.9,87,0.01,,,0.02,WUHU216HW,2013-03-28 06:02:00,
2013-03-28 02:07:00,36.5,33.0,29.87,NW,315,2.5,4.9,87,0.01,,,0.02,WUHU216HW,2013-03-28 06:07:00,
2013-03-28 02:12:00,36.5,33.0,29.87,NW,315,2.0,5.8,87,0.01,,,0.02,WUHU216HW,2013-03-28 06:12:00,
2013-03-28 02:17:00,36.5,33.0,29.87,NW,315,6.3,7.6,87,0.01,,,0.02,WUHU216HW,2013-03-28 06:17:00,
2013-03-28 02:22:00,36.3,32.8,29.87,WNW,293,1.8,7.6,87,0.00,,,0.02,WUHU216HW,2013-03-28 06:22:00,
2013-03-28 02:27:00,36.3,32.8,29.87,NNE,23,1.6,6.9,87,0.00,,,0.02,WUHU216HW,2013-03-28 06:27:00,
2013-03-28 02:32:00,36.3,32.8,29.87,NNW,338,1.8,4.5,87,0.00,,,0.02,WUHU216HW,2013-03-28 06:32:00,
2013-03-28 02:37:00,36.3,32.8,29.87,WNW,293,2.5,5.1,87,0.00,,,0.02,WUHU216HW,2013-03-28 06:37:00,
2013-03-28 02:42:00,36.3,32.8,29.87,NNW,338,0.7,5.4,87,0.00,,,0.02,WUHU216HW,2013-03-28 06:42:00,
2013-03-28 02:47:00,36.3,32.8,29.87,WNW,293,3.1,5.4,87,0.00,,,0.02,WUHU216HW,2013-03-28 06:47:00,
2013-03-28 02:52:00,36.1,32.6,29.87,NNE,23,1.8,5.4,87,0.00,,,0.02,WUHU216HW,2013-03-28 06:52:00,
2013-03-28 02:57:00,36.1,32.6,29.87,North,0,1.3,4.7,87,0.00,,,0.02,WUHU216HW,2013-03-28 06:57:00,
2013-03-28 03:02:00,36.1,32.6,29.87,NNW,338,4.0,4.7,87,0.00,,,0.02,WUHU216HW,2013-03-28 07:02:00,
2013-03-28 03:07:00,36.1,32.9,29.87,NNW,338,2.9,5.1,88,0.00,,,0.02,WUHU216HW,2013-03-28 07:07:00,
2013-03-28 03:12:00,36.1,32.9,29.87,NW,315,5.1,5.1,88,0.00,,,0.02,WUHU216HW,2013-03-28 07:12:00,
2013-03-28 03:17:00,36.1,32.9,29.87,WNW,293,4.0,5.1,88,0.00,,,0.02,WUHU216HW,2013-03-28 07:17:00,
2013-03-28 03:22:00,36.1,32.9,29.87,WNW,293,2.2,5.1,88,0.00,,,0.02,WUHU216HW,2013-03-28 07:22:00,
2013-03-28 03:27:00,36.1,32.6,29.87,NW,315,2.5,4.0,87,0.00,,,0.02,WUHU216HW,2013-03-28 07:27:00,
2013-03-28 03:32:00,36.1,32.9,29.87,NW,315,4.0,4.5,88,0.00,,,0.02,WUHU216HW,2013-03-28 07:32:00,
2013-03-28 03:37:00,36.1,32.9,29.87,NW,315,4.0,5.4,88,0.00,,,0.02,WUHU216HW,2013-03-28 07:37:00,
2013-03-28 03:42:00,36.1,32.9,29.87,NW,315,4.7,6.3,88,0.00,,,0.02,WUHU216HW,2013-03-28 07:42:00,
2013-03-28 03:47:00,36.1,32.9,29.87,NW,315,3.8,6.3,88,0.00,,,0.02,WUHU216HW,2013-03-28 07:47:00,
2013-03-28 03:52:00,35.9,32.7,29.87,NW,315,5.6,6.9,88,0.00,,,0.02,WUHU216HW,2013-03-28 07:52:00,
2013-03-28 03:57:00,35.8,32.6,29.87,WNW,293,6.3,6.9,88,0.00,,,0.02,WUHU216HW,2013-03-28 07:57:00,
2013-03-28 04:02:00,35.8,32.6,29.87,NNW,338,3.4,6.3,88,0.00,,,0.02,WUHU216HW,2013-03-28 08:02:00,
2013-03-28 04:07:00,35.6,32.4,29.87,NW,315,3.4,6.3,88,0.00,,,0.02,WUHU216HW,2013-03-28 08:07:00,
2013-03-28 04:12:00,35.4,32.2,29.87,WNW,293,1.8,5.1,88,0.00,,,0.02,WUHU216HW,2013-03-28 08:12:00,
2013-03-28 04:17:00,35.4,32.2,29.87,WNW,293,2.9,5.1,88,0.00,,,0.02,WUHU216HW,2013-03-28 08:17:00,
2013-03-28 04:22:00,35.4,32.2,29.87,NNW,338,4.5,6.5,88,0.00,,,0.02,WUHU216HW,2013-03-28 08:22:00,
2013-03-28 04:27:00,35.4,32.4,29.87,WSW,248,4.5,6.5,89,0.00,,,0.02,WUHU216HW,2013-03-28 08:27:00,
2013-03-28 04:32:00,35.4,32.2,29.87,West,270,3.4,6.3,88,0.00,,,0.02,WUHU216HW,2013-03-28 08:32:00,
2013-03-28 04:37:00,35.4,32.2,29.87,NW,315,4.0,5.4,88,0.00,,,0.02,WUHU216HW,2013-03-28 08:37:00,
2013-03-28 04:42:00,35.2,32.0,29.87,NW,315,2.7,5.4,88,0.00,,,0.02,WUHU216HW,2013-03-28 08:42:00,
2013-03-28 04:47:00,35.4,32.4,29.87,NW,315,2.7,5.4,89,0.00,,,0.02,WUHU216HW,2013-03-28 08:47:00,
2013-03-28 04:52:00,35.4,32.4,29.87,West,270,2.5,5.4,89,0.00,,,0.02,WUHU216HW,2013-03-28 08:52:00,
2013-03-28 04:57:00,35.4,32.4,29.87,NW,315,2.5,5.4,89,0.00,,,0.02,WUHU216HW,2013-03-28 08:57:00,
2013-03-28 05:02:00,35.4,32.4,29.87,WNW,293,4.0,5.4,89,0.00,,,0.02,WUHU216HW,2013-03-28 09:02:00,
2013-03-28 05:07:00,35.4,32.4,29.88,NW,315,2.0,4.3,89,0.00,,,0.02,WUHU216HW,2013-03-28 09:07:00,
2013-03-28 05:12:00,35.4,32.2,29.88,WNW,293,2.5,4.5,88,0.00,,,0.02,WUHU216HW,2013-03-28 09:12:00,
2013-03-28 05:17:00,35.4,32.2,29.88,NNW,338,2.7,4.5,88,0.00,,,0.02,WUHU216HW,2013-03-28 09:17:00,
2013-03-28 05:22:00,35.4,32.2,29.88,WNW,293,2.5,4.3,88,0.00,,,0.02,WUHU216HW,2013-03-28 09:22:00,
2013-03-28 05:27:00,35.4,32.2,29.88,NW,315,1.8,4.9,88,0.00,,,0.02,WUHU216HW,2013-03-28 09:27:00,
2013-03-28 05:32:00,35.4,32.2,29.88,NE,45,1.1,4.9,88,0.00,,,0.02,WUHU216HW,2013-03-28 09:32:00,
2013-03-28 05:37:00,35.6,32.4,29.89,NW,315,1.6,4.5,88,0.00,,,0.02,WUHU216HW,2013-03-28 09:37:00,
2013-03-28 05:42:00,35.6,32.4,29.89,NNE,23,1.1,2.9,88,0.00,,,0.02,WUHU216HW,2013-03-28 09:42:00,
2013-03-28 05:47:00,35.6,32.1,29.89,NNE,23,1.1,2.9,87,0.00,,,0.02,WUHU216HW,2013-03-28 09:47:00,
2013-03-28 05:52:00,35.8,32.3,29.89,NNW,338,0.9,2.7,87,0.00,,,0.02,WUHU216HW,2013-03-28 09:52:00,
2013-03-28 05:57:00,35.8,32.3,29.89,SW,225,0.7,2.7,87,0.00,,,0.02,WUHU216HW,2013-03-28 09:57:00,
2013-03-28 06:02:00,35.8,32.3,29.89,East,90,1.1,1.8,87,0.00,,,0.02,WUHU216HW,2013-03-28 10:02:00,
2013-03-28 06:07:00,35.9,32.0,29.89,NW,315,1.1,1.8,86,0.00,,,0.02,WUHU216HW,2013-03-28 10:07:00,
2013-03-28 06:12:00,35.9,32.1,29.89,NNW,338,0.7,1.8,86,0.00,,,0.02,WUHU216HW,2013-03-28 10:12:00,
2013-03-28 06:17:00,35.9,32.1,29.89,NW,315,0.9,1.8,86,0.00,,,0.02,WUHU216HW,2013-03-28 10:17:00,
2013-03-28 06:22:00,36.1,32.0,29.89,NW,315,1.8,2.5,85,0.00,,,0.02,WUHU216HW,2013-03-28 10:22:00,
2013-03-28 06:27:00,36.0,31.9,29.89,WNW,293,4.0,4.0,85,0.00,,,0.02,WUHU216HW,2013-03-28 10:27:00,
2013-03-28 06:32:00,36.1,32.0,29.90,SE,135,0.7,4.0,85,0.00,,,0.02,WUHU216HW,2013-03-28 10:32:00,
2013-03-28 06:37:00,36.1,32.0,29.90,West,270,4.3,4.7,85,0.00,,,0.02,WUHU216HW,2013-03-28 10:37:00,
2013-03-28 06:42:00,36.1,32.0,29.90,WSW,248,2.5,4.7,85,0.00,,,0.02,WUHU216HW,2013-03-28 10:42:00,
2013-03-28 06:47:00,36.1,32.0,29.90,NNW,338,2.7,3.6,85,0.00,,,0.02,WUHU216HW,2013-03-28 10:47:00,
2013-03-28 06:52:00,36.2,32.1,29.90,NNW,338,1.8,4.3,85,0.00,,,0.02,WUHU216HW,2013-03-28 10:52:00,
2013-03-28 06:57:00,36.2,32.1,29.90,SE,135,1.8,4.3,85,0.00,,,0.02,WUHU216HW,2013-03-28 10:57:00,
2013-03-28 07:02:00,36.3,32.4,29.90,NW,315,1.6,4.3,86,0.00,,,0.02,WUHU216HW,2013-03-28 11:02:00,
2013-03-28 07:07:00,36.3,32.5,29.91,WNW,293,3.4,4.3,86,0.00,,,0.02,WUHU216HW,2013-03-28 11:07:00,
2013-03-28 07:12:00,36.3,32.5,29.91,NW,315,2.2,4.3,86,0.00,,,0.02,WUHU216HW,2013-03-28 11:12:00,
2013-03-28 07:17:00,36.4,32.5,29.91,NW,315,1.8,4.3,86,0.00,,,0.02,WUHU216HW,2013-03-28 11:17:00,
2013-03-28 07:23:00,36.4,32.3,29.91,North,0,2.9,3.8,85,0.00,,,0.02,WUHU216HW,2013-03-28 11:23:00,
2013-03-28 07:28:00,36.4,32.6,29.91,NW,315,3.4,3.8,86,0.00,,,0.02,WUHU216HW,2013-03-28 11:28:00,
2013-03-28 07:33:00,36.6,32.5,29.92,North,0,2.0,3.6,85,0.00,,,0.02,WUHU216HW,2013-03-28 11:33:00,
2013-03-28 07:38:00,37.0,32.9,29.92,NW,315,1.3,3.6,85,0.00,,,0.02,WUHU216HW,2013-03-28 11:38:00,
2013-03-28 07:43:00,37.7,33.6,29.92,WNW,293,0.9,3.8,85,0.00,,,0.02,WUHU216HW,2013-03-28 11:43:00,
2013-03-28 07:47:00,38.4,34.2,29.92,NW,315,1.1,3.8,85,0.00,,,0.02,WUHU216HW,2013-03-28 11:47:00,
2013-03-28 07:53:00,39.1,34.7,29.93,WNW,293,1.6,3.8,84,0.00,,,0.02,WUHU216HW,2013-03-28 11:53:00,
2013-03-28 07:58:00,39.4,34.4,29.92,NNW,338,1.1,4.5,82,0.00,,,0.02,WUHU216HW,2013-03-28 11:58:00,
2013-03-28 08:03:00,39.9,34.8,29.92,NNE,23,1.8,4.5,82,0.00,,,0.02,WUHU216HW,2013-03-28 12:03:00,
2013-03-28 08:08:00,40.4,35.0,29.93,NNW,338,2.5,3.4,81,0.00,,,0.02,WUHU216HW,2013-03-28 12:08:00,
2013-03-28 08:13:00,40.4,34.8,29.92,South,180,0.7,3.4,80,0.00,,,0.02,WUHU216HW,2013-03-28 12:13:00,
2013-03-28 08:18:00,40.6,34.7,29.93,WSW,248,0.4,3.4,79,0.00,,,0.02,WUHU216HW,2013-03-28 12:18:00,
2013-03-28 08:23:00,40.9,34.9,29.93,West,270,2.5,3.4,79,0.00,,,0.02,WUHU216HW,2013-03-28 12:23:00,
2013-03-28 08:28:00,41.3,35.0,29.93,West,270,1.8,2.9,78,0.00,,,0.02,WUHU216HW,2013-03-28 12:28:00,
2013-03-28 08:33:00,41.6,35.0,29.93,NNW,338,0.9,2.9,77,0.00,,,0.02,WUHU216HW,2013-03-28 12:33:00,
2013-03-28 08:38:00,42.1,35.4,29.93,SE,135,1.1,2.5,77,0.00,,,0.02,WUHU216HW,2013-03-28 12:38:00,
2013-03-28 08:43:00,42.4,35.7,29.93,ENE,68,1.1,2.2,77,0.00,,,0.02,WUHU216HW,2013-03-28 12:43:00,
2013-03-28 08:48:00,42.6,35.0,29.93,SE,135,0.4,2.2,74,0.00,,,0.02,WUHU216HW,2013-03-28 12:48:00,
2013-03-28 08:53:00,43.1,35.4,29.93,West,270,1.6,1.8,74,0.00,,,0.02,WUHU216HW,2013-03-28 12:53:00,
2013-03-28 08:57:00,43.3,35.6,29.93,NNW,338,1.1,4.9,74,0.00,,,0.02,WUHU216HW,2013-03-28 12:57:00,
2013-03-28 09:03:00,43.4,35.4,29.93,NNW,338,1.1,4.9,73,0.00,,,0.02,WUHU216HW,2013-03-28 13:03:00,
2013-03-28 09:07:00,43.6,35.6,29.93,East,90,0.7,1.8,73,0.00,,,0.02,WUHU216HW,2013-03-28 13:07:00,
2013-03-28 09:12:00,44.1,36.0,29.93,South,180,0.9,1.8,73,0.00,,,0.02,WUHU216HW,2013-03-28 13:12:00,
2013-03-28 09:17:00,44.4,36.0,29.94,NNW,338,1.3,1.8,72,0.00,,,0.02,WUHU216HW,2013-03-28 13:17:00,
2013-03-28 09:22:00,44.8,36.1,29.93,South,180,1.8,2.5,71,0.00,,,0.02,WUHU216HW,2013-03-28 13:22:00,
2013-03-28 09:27:00,45.0,35.6,29.94,WNW,293,0.4,2.5,69,0.00,,,0.02,WUHU216HW,2013-03-28 13:27:00,
2013-03-28 09:32:00,45.4,35.9,29.94,NW,315,0.4,3.4,69,0.00,,,0.02,WUHU216HW,2013-03-28 13:32:00,
2013-03-28 09:37:00,45.6,35.7,29.94,SW,225,1.1,3.4,68,0.00,,,0.02,WUHU216HW,2013-03-28 13:37:00,
2013-03-28 09:42:00,46.0,35.8,29.94,West,270,0.9,2.2,67,0.00,,,0.02,WUHU216HW,2013-03-28 13:42:00,
2013-03-28 09:47:00,46.2,35.6,29.94,NW,315,1.1,2.7,66,0.00,,,0.02,WUHU216HW,2013-03-28 13:47:00,
2013-03-28 09:52:00,47.9,36.0,29.94,ESE,113,0.4,4.0,63,0.00,,,0.02,WUHU216HW,2013-03-28 13:52:00,
2013-03-28 09:57:00,49.0,37.4,29.94,NNW,338,0.7,4.0,64,0.00,,,0.02,WUHU216HW,2013-03-28 13:57:00,
2013-03-28 10:02:00,50.0,38.4,29.94,SSW,203,0.4,3.6,64,0.00,,,0.02,WUHU216HW,2013-03-28 14:02:00,
2013-03-28 10:07:00,51.3,38.4,29.94,North,0,1.1,2.2,61,0.00,,,0.02,WUHU216HW,2013-03-28 14:07:00,
2013-03-28 10:12:00,52.2,36.6,29.94,South,180,0.0,1.8,55,0.00,,,0.02,WUHU216HW,2013-03-28 14:12:00,
2013-03-28 10:17:00,52.5,37.7,29.94,SE,135,1.1,1.8,57,0.00,,,0.02,WUHU216HW,2013-03-28 14:17:00,
2013-03-28 10:22:00,52.8,37.1,29.94,WNW,293,0.4,1.8,55,0.00,,,0.02,WUHU216HW,2013-03-28 14:22:00,
2013-03-28 10:27:00,53.6,37.9,29.95,WNW,293,0.9,1.6,55,0.00,,,0.02,WUHU216HW,2013-03-28 14:27:00,
2013-03-28 10:32:00,54.5,38.7,29.95,North,0,1.1,1.6,55,0.00,,,0.02,WUHU216HW,2013-03-28 14:32:00,
2013-03-28 10:37:00,54.3,37.1,29.95,WNW,293,0.7,1.8,52,0.00,,,0.02,WUHU216HW,2013-03-28 14:37:00,
2013-03-28 10:42:00,53.4,35.8,29.95,ENE,68,1.3,2.2,51,0.00,,,0.02,WUHU216HW,2013-03-28 14:42:00,
2013-03-28 10:47:00,52.5,35.4,29.95,NNW,338,1.3,2.2,52,0.00,,,0.02,WUHU216HW,2013-03-28 14:47:00,
2013-03-28 10:52:00,52.2,35.6,29.94,SW,225,0.4,2.5,53,0.00,,,0.02,WUHU216HW,2013-03-28 14:52:00,
2013-03-28 10:57:00,52.6,36.0,29.95,WNW,293,1.1,2.5,53,0.00,,,0.02,WUHU216HW,2013-03-28 14:57:00,
2013-03-28 11:02:00,53.1,35.9,29.95,ESE,113,2.9,2.9,52,0.00,,,0.02,WUHU216HW,2013-03-28 15:02:00,
2013-03-28 11:07:00,52.9,34.7,29.95,ESE,113,2.2,2.9,50,0.00,,,0.02,WUHU216HW,2013-03-28 15:07:00,
2013-03-28 11:12:00,52.4,34.8,29.95,SE,135,1.1,2.9,51,0.00,,,0.02,WUHU216HW,2013-03-28 15:12:00,
2013-03-28 11:17:00,51.5,33.5,29.95,ESE,113,3.4,4.9,50,0.00,,,0.02,WUHU216HW,2013-03-28 15:17:00,
2013-03-28 11:22:00,49.7,33.3,29.95,NNW,338,1.1,4.9,53,0.00,,,0.02,WUHU216HW,2013-03-28 15:22:00,
2013-03-28 11:27:00,49.3,33.9,29.95,ESE,113,1.3,4.3,55,0.00,,,0.02,WUHU216HW,2013-03-28 15:27:00,
2013-03-28 11:32:00,49.3,33.8,29.95,ESE,113,3.8,4.0,55,0.00,,,0.02,WUHU216HW,2013-03-28 15:32:00,
2013-03-28 11:37:00,48.5,34.0,29.95,ESE,113,2.9,4.0,57,0.00,,,0.02,WUHU216HW,2013-03-28 15:37:00,
2013-03-28 11:43:00,48.0,34.0,29.95,East,90,0.9,4.0,58,0.00,,,0.02,WUHU216HW,2013-03-28 15:43:00,
2013-03-28 11:47:00,47.8,33.8,29.95,East,90,3.6,3.6,58,0.00,,,0.02,WUHU216HW,2013-03-28 15:47:00,
2013-03-28 11:52:00,47.3,33.7,29.95,SSE,158,1.1,4.0,59,0.00,,,0.02,WUHU216HW,2013-03-28 15:52:00,
2013-03-28 11:57:00,47.3,34.2,29.95,East,90,2.7,4.0,60,0.00,,,0.02,WUHU216HW,2013-03-28 15:57:00,
2013-03-28 12:02:00,47.1,33.6,29.95,ESE,113,1.3,3.4,59,0.00,,,0.02,WUHU216HW,2013-03-28 16:02:00,
2013-03-28 12:07:00,46.9,34.2,29.95,SSE,158,2.5,3.8,61,0.00,,,0.02,WUHU216HW,2013-03-28 16:07:00,
2013-03-28 12:12:00,46.9,34.2,29.95,SE,135,1.8,3.8,61,0.00,,,0.02,WUHU216HW,2013-03-28 16:12:00,
2013-03-28 12:17:00,47.1,34.8,29.95,NNE,23,1.6,2.9,62,0.00,,,0.02,WUHU216HW,2013-03-28 16:17:00,
2013-03-28 12:22:00,47.3,34.6,29.95,ESE,113,2.5,2.9,61,0.00,,,0.02,WUHU216HW,2013-03-28 16:22:00,
2013-03-28 12:27:00,47.3,34.6,29.95,East,90,1.8,4.9,61,0.00,,,0.02,WUHU216HW,2013-03-28 16:27:00,
2013-03-28 12:32:00,47.6,34.5,29.95,NNW,338,1.3,4.9,60,0.00,,,0.02,WUHU216HW,2013-03-28 16:32:00,
2013-03-28 12:37:00,47.6,33.6,29.95,SE,135,3.4,3.4,58,0.00,,,0.02,WUHU216HW,2013-03-28 16:37:00,
2013-03-28 12:42:00,47.6,33.2,29.95,SE,135,2.9,3.4,57,0.00,,,0.02,WUHU216HW,2013-03-28 16:42:00,
2013-03-28 12:47:00,47.5,33.5,29.95,ENE,68,1.8,4.0,58,0.00,,,0.02,WUHU216HW,2013-03-28 16:47:00,
2013-03-28 12:52:00,47.3,33.8,29.95,SSE,158,3.6,5.8,59,0.00,,,0.02,WUHU216HW,2013-03-28 16:52:00,
2013-03-28 12:57:00,47.1,34.0,29.95,North,0,3.6,5.8,60,0.00,,,0.02,WUHU216HW,2013-03-28 16:57:00,
2013-03-28 13:02:00,46.2,34.0,29.95,ESE,113,1.1,4.9,62,0.00,,,0.02,WUHU216HW,2013-03-28 17:02:00,
2013-03-28 13:07:00,46.2,33.6,29.95,ENE,68,4.3,5.4,61,0.00,,,0.02,WUHU216HW,2013-03-28 17:07:00,
2013-03-28 13:12:00,46.2,34.0,29.95,ESE,113,1.8,5.4,62,0.00,,,0.02,WUHU216HW,2013-03-28 17:12:00,
2013-03-28 13:17:00,46.2,33.5,29.95,West,270,1.6,3.6,61,0.00,,,0.02,WUHU216HW,2013-03-28 17:17:00,
2013-03-28 13:23:00,46.0,33.3,29.95,SW,225,1.1,4.0,61,0.00,,,0.02,WUHU216HW,2013-03-28 17:23:00,
2013-03-28 13:27:00,46.2,33.5,29.95,NNE,23,0.7,4.0,61,0.00,,,0.02,WUHU216HW,2013-03-28 17:27:00,
2013-03-28 13:32:00,46.1,33.5,29.95,NE,45,1.3,2.0,61,0.00,,,0.02,WUHU216HW,2013-03-28 17:32:00,
2013-03-28 13:37:00,45.9,33.3,29.95,East,90,1.3,4.0,61,0.00,,,0.02,WUHU216HW,2013-03-28 17:37:00,
2013-03-28 13:43:00,45.7,33.1,29.95,North,0,2.5,4.0,61,0.00,,,0.02,WUHU216HW,2013-03-28 17:43:00,
2013-03-28 13:48:00,45.7,33.5,29.96,WNW,293,2.2,3.4,62,0.00,,,0.02,WUHU216HW,2013-03-28 17:48:00,
2013-03-28 13:53:00,45.6,33.4,29.96,NNW,338,1.6,2.9,62,0.00,,,0.02,WUHU216HW,2013-03-28 17:53:00,
2013-03-28 13:58:00,45.4,33.2,29.96,WNW,293,1.3,2.5,62,0.00,,,0.02,WUHU216HW,2013-03-28 17:58:00,
2013-03-28 14:02:00,45.4,33.2,29.95,North,0,1.3,2.2,62,0.00,,,0.02,WUHU216HW,2013-03-28 18:02:00,
2013-03-28 14:07:00,45.2,33.4,29.95,WNW,293,2.0,2.2,63,0.00,,,0.02,WUHU216HW,2013-03-28 18:07:00,
2013-03-28 14:12:00,44.9,33.2,29.96,NNW,338,1.8,2.9,63,0.00,,,0.02,WUHU216HW,2013-03-28 18:12:00,
2013-03-28 14:17:00,44.7,33.0,29.95,NE,45,0.7,2.9,63,0.00,,,0.02,WUHU216HW,2013-03-28 18:17:00,
2013-03-28 14:22:00,44.9,33.2,29.96,West,270,1.1,2.5,63,0.00,,,0.02,WUHU216HW,2013-03-28 18:22:00,
2013-03-28 14:27:00,45.1,33.3,29.95,WNW,293,1.3,2.5,63,0.00,,,0.02,WUHU216HW,2013-03-28 18:27:00,
2013-03-28 14:32:00,45.8,34.4,29.95,WSW,248,1.1,1.8,64,0.00,,,0.02,WUHU216HW,2013-03-28 18:32:00,
2013-03-28 14:37:00,46.7,35.2,29.95,NW,315,0.4,1.6,64,0.00,,,0.02,WUHU216HW,2013-03-28 18:37:00,
2013-03-28 14:42:00,48.1,36.6,29.95,NW,315,0.9,1.8,64,0.00,,,0.02,WUHU216HW,2013-03-28 18:42:00,
2013-03-28 14:47:00,49.1,37.2,29.95,SSW,203,1.1,1.8,63,0.00,,,0.02,WUHU216HW,2013-03-28 18:47:00,
2013-03-28 14:52:00,50.0,36.8,29.95,SW,225,0.7,1.8,60,0.00,,,0.02,WUHU216HW,2013-03-28 18:52:00,
2013-03-28 14:57:00,50.2,36.5,29.95,ESE,113,1.1,3.8,59,0.00,,,0.02,WUHU216HW,2013-03-28 18:57:00,
2013-03-28 15:02:00,49.1,35.0,29.95,ESE,113,3.4,3.8,58,0.00,,,0.02,WUHU216HW,2013-03-28 19:02:00,
2013-03-28 15:07:00,48.3,34.8,29.95,East,90,3.4,3.4,59,0.00,,,0.02,WUHU216HW,2013-03-28 19:07:00,
2013-03-28 15:12:00,48.9,35.7,29.95,SSW,203,0.7,4.0,60,0.00,,,0.02,WUHU216HW,2013-03-28 19:12:00,
2013-03-28 15:17:00,48.7,33.8,29.95,East,90,4.3,4.7,56,0.00,,,0.02,WUHU216HW,2013-03-28 19:17:00,
2013-03-28 15:22:00,46.9,33.4,29.95,SE,135,2.7,4.7,59,0.00,,,0.02,WUHU216HW,2013-03-28 19:22:00,
2013-03-28 15:27:00,46.3,33.2,29.95,ESE,113,2.5,4.3,60,0.00,,,0.02,WUHU216HW,2013-03-28 19:27:00,
2013-03-28 15:32:00,46.1,33.1,29.95,South,180,1.8,3.4,60,0.00,,,0.02,WUHU216HW,2013-03-28 19:32:00,
2013-03-28 15:37:00,46.2,32.7,29.95,ESE,113,3.1,4.5,59,0.00,,,0.02,WUHU216HW,2013-03-28 19:37:00,
2013-03-28 15:42:00,45.5,32.9,29.95,ESE,113,1.3,4.5,61,0.00,,,0.02,WUHU216HW,2013-03-28 19:42:00,
2013-03-28 15:47:00,45.3,32.7,29.95,SE,135,2.5,4.0,61,0.00,,,0.02,WUHU216HW,2013-03-28 19:47:00,
2013-03-28 15:52:00,45.4,32.8,29.95,SE,135,2.0,3.4,61,0.00,,,0.02,WUHU216HW,2013-03-28 19:52:00,
2013-03-28 15:57:00,45.4,32.4,29.95,East,90,1.3,2.7,60,0.00,,,0.02,WUHU216HW,2013-03-28 19:57:00,
2013-03-28 16:02:00,44.9,31.9,29.95,East,90,2.5,3.4,60,0.00,,,0.02,WUHU216HW,2013-03-28 20:02:00,
2013-03-28 16:07:00,44.4,31.9,29.95,ESE,113,2.5,3.4,61,0.00,,,0.02,WUHU216HW,2013-03-28 20:07:00,
2013-03-28 16:13:00,43.9,31.8,29.95,East,90,2.0,3.4,62,0.00,,,0.02,WUHU216HW,2013-03-28 20:13:00,
2013-03-28 16:18:00,43.7,32.0,29.95,SE,135,1.8,3.4,63,0.00,,,0.02,WUHU216HW,2013-03-28 20:18:00,
2013-03-28 16:23:00,44.1,32.0,29.95,ESE,113,2.2,2.7,62,0.00,,,0.02,WUHU216HW,2013-03-28 20:23:00,
2013-03-28 16:28:00,44.3,32.2,29.95,ESE,113,1.1,2.7,62,0.00,,,0.02,WUHU216HW,2013-03-28 20:28:00,
2013-03-28 16:34:00,44.3,31.8,29.94,WSW,248,1.1,2.5,61,0.00,,,0.02,WUHU216HW,2013-03-28 20:34:00,
2013-03-28 16:39:00,44.7,32.1,29.94,South,180,2.2,2.5,61,0.00,,,0.02,WUHU216HW,2013-03-28 20:39:00,
2013-03-28 16:44:00,44.8,33.1,29.95,SW,225,1.8,4.3,63,0.00,,,0.02,WUHU216HW,2013-03-28 20:44:00,
2013-03-28 16:49:00,44.9,32.8,29.95,SSW,203,1.1,4.3,62,0.00,,,0.02,WUHU216HW,2013-03-28 20:49:00,
2013-03-28 16:54:00,44.9,33.1,29.95,SW,225,2.5,2.5,63,0.00,,,0.02,WUHU216HW,2013-03-28 20:54:00,
2013-03-28 16:59:00,45.0,32.9,29.95,SSW,203,0.7,2.5,62,0.00,,,0.02,WUHU216HW,2013-03-28 20:59:00,
2013-03-28 17:04:00,45.0,32.9,29.95,WSW,248,0.9,2.0,62,0.00,,,0.02,WUHU216HW,2013-03-28 21:04:00,
2013-03-28 17:09:00,45.0,32.8,29.95,SSE,158,1.8,2.2,62,0.00,,,0.02,WUHU216HW,2013-03-28 21:09:00,
2013-03-28 17:14:00,44.7,33.0,29.95,SSE,158,1.3,2.5,63,0.00,,,0.02,WUHU216HW,2013-03-28 21:14:00,
2013-03-28 17:19:00,44.7,33.0,29.94,SSE,158,0.7,2.5,63,0.00,,,0.02,WUHU216HW,2013-03-28 21:19:00,
2013-03-28 17:24:00,44.7,32.9,29.95,SSW,203,0.4,1.8,63,0.00,,,0.02,WUHU216HW,2013-03-28 21:24:00,
2013-03-28 17:29:00,44.6,33.3,29.95,SE,135,2.5,2.7,64,0.00,,,0.02,WUHU216HW,2013-03-28 21:29:00,
2013-03-28 17:34:00,43.7,32.4,29.95,ESE,113,2.5,3.4,64,0.00,,,0.02,WUHU216HW,2013-03-28 21:34:00,
2013-03-28 17:39:00,43.6,32.7,29.95,SSE,158,2.0,3.4,65,0.00,,,0.02,WUHU216HW,2013-03-28 21:39:00,
2013-03-28 17:44:00,43.5,32.6,29.95,ESE,113,1.1,2.7,65,0.00,,,0.02,WUHU216HW,2013-03-28 21:44:00,
2013-03-28 17:49:00,43.8,33.3,29.95,South,180,0.7,2.0,66,0.00,,,0.02,WUHU216HW,2013-03-28 21:49:00,
2013-03-28 17:54:00,44.2,33.2,29.95,West,270,1.1,1.8,65,0.00,,,0.02,WUHU216HW,2013-03-28 21:54:00,
2013-03-28 17:59:00,44.6,32.9,29.95,West,270,2.5,2.5,63,0.00,,,0.02,WUHU216HW,2013-03-28 21:59:00,
2013-03-28 18:04:00,45.0,33.2,29.95,West,270,3.4,3.4,63,0.00,,,0.02,WUHU216HW,2013-03-28 22:04:00,
2013-03-28 18:09:00,45.0,33.2,29.95,WNW,293,2.0,3.8,63,0.00,,,0.02,WUHU216HW,2013-03-28 22:09:00,
2013-03-28 18:14:00,45.1,32.6,29.95,WSW,248,4.0,4.3,61,0.00,,,0.02,WUHU216HW,2013-03-28 22:14:00,
2013-03-28 18:19:00,45.1,32.5,29.95,WNW,293,5.4,6.9,61,0.00,,,0.02,WUHU216HW,2013-03-28 22:19:00,
2013-03-28 18:24:00,45.1,31.7,29.96,WNW,293,5.6,6.9,59,0.00,,,0.02,WUHU216HW,2013-03-28 22:24:00,
2013-03-28 18:29:00,44.8,32.3,29.96,West,270,3.1,6.9,61,0.00,,,0.02,WUHU216HW,2013-03-28 22:29:00,
2013-03-28 18:34:00,44.8,32.6,29.96,West,270,4.5,5.1,62,0.00,,,0.02,WUHU216HW,2013-03-28 22:34:00,
2013-03-28 18:39:00,44.4,32.2,29.96,West,270,4.5,4.9,62,0.00,,,0.02,WUHU216HW,2013-03-28 22:39:00,
2013-03-28 18:44:00,44.1,32.0,29.97,West,270,4.5,5.1,62,0.00,,,0.02,WUHU216HW,2013-03-28 22:44:00,
2013-03-28 18:49:00,44.1,32.4,29.97,West,270,4.0,5.1,63,0.00,,,0.02,WUHU216HW,2013-03-28 22:49:00,
2013-03-28 18:54:00,43.9,32.6,29.97,West,270,4.0,4.7,64,0.00,,,0.02,WUHU216HW,2013-03-28 22:54:00,
2013-03-28 18:59:00,43.7,32.4,29.97,West,270,2.0,4.7,64,0.00,,,0.02,WUHU216HW,2013-03-28 22:59:00,
2013-03-28 19:04:00,43.7,32.0,29.97,WNW,293,2.2,3.6,63,0.00,,,0.02,WUHU216HW,2013-03-28 23:04:00,
2013-03-28 19:09:00,43.7,32.8,29.97,West,270,2.9,4.0,65,0.00,,,0.02,WUHU216HW,2013-03-28 23:09:00,
2013-03-28 19:14:00,43.3,32.8,29.97,SW,225,2.7,4.0,66,0.00,,,0.02,WUHU216HW,2013-03-28 23:14:00,
2013-03-28 19:19:00,43.3,31.6,29.97,WSW,248,4.0,4.7,63,0.00,,,0.02,WUHU216HW,2013-03-28 23:19:00,
2013-03-28 19:24:00,43.5,31.8,29.97,West,270,2.7,4.7,63,0.00,,,0.02,WUHU216HW,2013-03-28 23:24:00,
2013-03-28 19:29:00,43.5,31.8,29.97,West,270,3.1,4.0,63,0.00,,,0.02,WUHU216HW,2013-03-28 23:29:00,
2013-03-28 19:34:00,43.5,31.8,29.97,West,270,3.1,3.1,63,0.00,,,0.02,WUHU216HW,2013-03-28 23:34:00,
2013-03-28 20:00:00,42.6,31.4,29.98,West,270,2.7,2.7,64,0.00,,,0.02,WUHU216HW,2013-03-29 00:00:00,
2013-03-28 20:05:00,42.6,31.0,29.98,WNW,293,2.5,2.7,63,0.00,,,0.02,WUHU216HW,2013-03-29 00:05:00,
2013-03-28 20:10:00,42.6,31.4,29.98,West,270,2.5,3.4,64,0.00,,,0.02,WUHU216HW,2013-03-29 00:10:00,
2013-03-28 20:15:00,42.4,31.6,29.98,West,270,1.8,3.4,65,0.00,,,0.02,WUHU216HW,2013-03-29 00:15:00,
2013-03-28 20:20:00,42.1,31.3,29.98,WNW,293,1.8,3.1,65,0.00,,,0.02,WUHU216HW,2013-03-29 00:20:00,
2013-03-28 20:25:00,41.9,31.1,29.98,WNW,293,1.8,3.8,65,0.00,,,0.02,WUHU216HW,2013-03-29 00:25:00,
2013-03-28 20:30:00,41.9,31.1,29.98,West,270,1.8,3.8,65,0.00,,,0.02,WUHU216HW,2013-03-29 00:30:00,
2013-03-28 20:35:00,41.9,30.3,29.99,WSW,248,2.7,4.0,63,0.00,,,0.02,WUHU216HW,2013-03-29 00:35:00,
2013-03-28 20:40:00,41.9,30.3,29.98,WNW,293,2.5,4.3,63,0.00,,,0.02,WUHU216HW,2013-03-29 00:40:00,
2013-03-28 20:45:00,41.9,30.3,29.98,West,270,2.2,4.3,63,0.00,,,0.02,WUHU216HW,2013-03-29 00:45:00,
2013-03-28 20:48:00,41.9,29.9,29.99,West,270,4.0,4.0,62,0.00,,,0.02,WUHU216HW,2013-03-29 00:48:00,
2013-03-28 20:50:00,41.9,29.9,29.99,West,270,4.0,4.7,62,0.00,,,0.02,WUHU216HW,2013-03-29 00:50:00,
2013-03-28 20:55:00,41.9,29.9,29.99,West,270,4.0,4.7,62,0.00,,,0.02,WUHU216HW,2013-03-29 00:55:00,
2013-03-28 21:00:00,42.1,30.1,29.99,West,270,4.0,4.0,62,0.00,,,0.02,WUHU216HW,2013-03-29 01:00:00,
2013-03-28 21:05:00,41.9,30.3,29.99,West,270,3.4,4.0,63,0.00,,,0.02,WUHU216HW,2013-03-29 01:05:00,
2013-03-28 21:10:00,41.7,30.1,29.99,WNW,293,1.8,4.3,63,0.00,,,0.02,WUHU216HW,2013-03-29 01:10:00,
2013-03-28 21:15:00,41.5,29.9,29.99,West,270,2.5,4.3,63,0.00,,,0.02,WUHU216HW,2013-03-29 01:15:00,
2013-03-28 21:20:00,41.5,29.9,29.99,West,270,3.4,4.0,63,0.00,,,0.02,WUHU216HW,2013-03-29 01:20:00,
2013-03-28 21:25:00,41.3,29.7,29.99,WNW,293,2.5,3.8,63,0.00,,,0.02,WUHU216HW,2013-03-29 01:25:00,
2013-03-28 21:30:00,41.2,29.6,29.99,WNW,293,2.2,3.8,63,0.00,,,0.02,WUHU216HW,2013-03-29 01:30:00,
2013-03-28 21:35:00,41.2,29.6,29.99,WNW,293,2.7,3.8,63,0.00,,,0.02,WUHU216HW,2013-03-29 01:35:00,
2013-03-28 21:40:00,41.0,29.4,30.00,WNW,293,3.4,3.8,63,0.00,,,0.02,WUHU216HW,2013-03-29 01:40:00,
2013-03-28 21:45:00,40.8,29.6,30.00,NW,315,2.2,3.8,64,0.00,,,0.02,WUHU216HW,2013-03-29 01:45:00,
2013-03-28 21:50:00,40.8,29.6,30.00,WNW,293,2.7,3.4,64,0.00,,,0.02,WUHU216HW,2013-03-29 01:50:00,
2013-03-28 21:55:00,40.6,29.8,30.00,WNW,293,3.4,3.8,65,0.00,,,0.02,WUHU216HW,2013-03-29 01:55:00,
2013-03-28 22:00:00,40.6,30.2,30.00,West,270,2.7,3.8,66,0.00,,,0.02,WUHU216HW,2013-03-29 02:00:00,
2013-03-28 22:05:00,40.6,30.2,30.00,WNW,293,3.1,4.0,66,0.00,,,0.02,WUHU216HW,2013-03-29 02:05:00,
2013-03-28 22:10:00,40.6,30.2,30.00,WSW,248,0.9,4.0,66,0.00,,,0.02,WUHU216HW,2013-03-29 02:10:00,
2013-03-28 22:15:00,40.6,30.2,30.00,WNW,293,2.9,3.4,66,0.00,,,0.02,WUHU216HW,2013-03-29 02:15:00,
2013-03-28 22:20:00,40.6,30.2,30.00,NW,315,2.5,3.4,66,0.00,,,0.02,WUHU216HW,2013-03-29 02:20:00,
2013-03-28 22:25:00,40.6,30.2,30.00,North,0,3.1,3.6,66,0.00,,,0.02,WUHU216HW,2013-03-29 02:25:00,
2013-03-28 22:30:00,40.6,30.2,30.00,West,270,2.9,3.8,66,0.00,,,0.02,WUHU216HW,2013-03-29 02:30:00,
2013-03-28 22:35:00,40.6,30.2,30.00,NW,315,3.8,3.8,66,0.00,,,0.02,WUHU216HW,2013-03-29 02:35:00,
2013-03-28 22:40:00,40.6,30.2,30.00,NW,315,3.4,4.0,66,0.00,,,0.02,WUHU216HW,2013-03-29 02:40:00,
2013-03-28 22:45:00,40.4,30.0,30.00,WNW,293,2.7,4.7,66,0.00,,,0.02,WUHU216HW,2013-03-29 02:45:00,
2013-03-28 22:50:00,40.4,30.0,30.00,NNW,338,3.4,4.7,66,0.00,,,0.02,WUHU216HW,2013-03-29 02:50:00,
2013-03-28 22:55:00,40.4,30.4,30.00,NW,315,4.0,4.5,67,0.00,,,0.02,WUHU216HW,2013-03-29 02:55:00,
2013-03-28 23:00:00,40.4,30.4,30.00,West,270,4.0,4.5,67,0.00,,,0.02,WUHU216HW,2013-03-29 03:00:00,
2013-03-28 23:05:00,40.6,30.2,30.00,WSW,248,2.5,4.7,66,0.00,,,0.02,WUHU216HW,2013-03-29 03:05:00,
2013-03-28 23:10:00,40.8,30.4,29.99,West,270,4.3,5.1,66,0.00,,,0.02,WUHU216HW,2013-03-29 03:10:00,
2013-03-28 23:15:00,40.8,30.4,29.99,WNW,293,4.3,5.1,66,0.00,,,0.02,WUHU216HW,2013-03-29 03:15:00,
2013-03-28 23:20:00,40.8,30.4,30.00,NW,315,3.8,5.1,66,0.00,,,0.02,WUHU216HW,2013-03-29 03:20:00,
2013-03-28 23:25:00,40.8,30.4,30.00,NNW,338,4.5,4.7,66,0.00,,,0.02,WUHU216HW,2013-03-29 03:25:00,
2013-03-28 23:30:00,40.6,30.2,30.00,WNW,293,2.5,4.7,66,0.00,,,0.02,WUHU216HW,2013-03-29 03:30:00,
2013-03-28 23:35:00,40.4,30.0,30.00,WNW,293,2.5,4.7,66,0.00,,,0.02,WUHU216HW,2013-03-29 03:35:00,
2013-03-28 23:40:00,40.3,30.3,30.00,NW,315,3.4,4.7,67,0.00,,,0.02,WUHU216HW,2013-03-29 03:40:00,
2013-03-28 23:45:00,40.1,30.1,30.00,NW,315,2.9,3.6,67,0.00,,,0.02,WUHU216HW,2013-03-29 03:45:00,
2013-03-28 23:50:00,39.7,29.7,30.00,West,270,2.0,4.3,67,0.00,,,0.02,WUHU216HW,2013-03-29 03:50:00,
2013-03-28 23:55:00,39.7,30.4,30.00,WNW,293,3.4,4.3,69,0.00,,,0.02,WUHU216HW,2013-03-29 03:55:00,